Location: Newark
(49.0000°N, 1.1667°E)
Time: 14:38:51
(UTC+00:00)

Starlink (trailer) - Visible Passes

Search period start: 16 July 2019 00:00
Search period end: 26 July 2019 00:00
Orbit: 548 x 552 km, 53.0° (Epoch: 15 July)

Date Brightness Start Highest point End Pass type
(mag) Time Alt. Az. Time Alt. Az. Time Alt. Az.
16 Jul 4.4 02:47:25 15° SSW 02:50:33 40° SE 02:54:26 10° ENE visible
17 Jul 6.0 01:06:23 11° SE 01:06:23 11° SE 01:07:17 10° ESE visible
17 Jul 4.0 02:42:02 17° SW 02:45:02 50° SSE 02:49:05 10° ENE visible
18 Jul 5.7 01:00:58 14° SE 01:00:58 14° SE 01:02:55 10° E visible
18 Jul 3.7 02:36:36 18° SW 02:39:34 63° SSE 02:43:41 10° ENE visible
19 Jul 5.4 00:55:29 18° SE 00:55:29 18° SE 00:57:58 10° E visible
19 Jul 3.6 02:31:08 18° SW 02:34:07 77° SSE 02:38:16 10° ENE visible
20 Jul 5.1 00:49:58 23° SE 00:49:58 23° SE 00:52:49 10° E visible
20 Jul 3.6 02:25:36 18° WSW 02:28:40 89° NNW 02:32:51 10° ENE visible
21 Jul 4.7 00:44:24 29° SE 00:44:24 29° SE 00:47:34 10° ENE visible
21 Jul 3.7 02:20:02 16° WSW 02:23:15 76° NNW 02:27:25 10° ENE visible
22 Jul 4.3 00:38:48 37° SE 00:38:48 37° SE 00:42:14 10° ENE visible
22 Jul 3.9 02:14:25 15° W 02:17:50 67° NNW 02:21:59 10° ENE visible
23 Jul 3.9 00:33:08 47° SE 00:33:08 47° SE 00:36:52 10° ENE visible
23 Jul 4.1 02:08:45 13° W 02:12:26 59° NNW 02:16:33 10° ENE visible
24 Jul 3.6 00:27:25 61° SE 00:27:25 61° SE 00:31:28 10° ENE visible
24 Jul 4.3 02:03:02 10° W 02:07:03 54° NNW 02:11:08 10° ENE visible
25 Jul 3.4 00:21:37 71° S 00:21:54 75° SSE 00:26:03 10° ENE visible
25 Jul 4.5 01:57:36 10° W 02:01:40 50° N 02:05:43 10° ENE visible
25 Jul 5.9 22:40:07 12° E 22:40:07 12° E 22:40:32 10° E visible
